Regional Weather Roundup
Issued by NWS

Home | Current Version | Previous Version | Text Only | Print | Product List | Glossary Off
Versions: 1 2 3 4 5 6 7 8 9 10 11 12 13 14 15 16 17 18 19 20 21 22 23 24 25 26 27 28 29 30 31 32 33 34 35 36 37 38 39 40 41 42 43 44 45 46 47 48 49 50

000
ASUS44 KMEG 230800
RWRTN
TENNESSEE HOURLY STATE WEATHER ROUNDUP
NATIONAL WEATHER SERVICE MEMPHIS TN
300 AM CDT THU OCT 23 2014

TNZ002-004-019-021-049-052-054-088>092-230900-
WEST TENNESSEE

CITY           SKY/WX    TMP DP  RH WIND       PRES   REMARKS
MEMPHIS INTL   CLEAR     50  43  77 NE7       30.17F
NWS MEMPHIS      N/A     44 N/A N/A MISG        N/A
JACKSON        CLEAR     40  37  89 CALM      30.20R
DYERSBURG      CLEAR     45  32  61 NE5       30.22S
UNION CITY     CLEAR     39  39 100 CALM      30.20S
PARIS          CLEAR     37  37 100 NE5       30.21S WCI  34
LEXINGTON      CLEAR     39  37  93 CALM      30.19S
SAVANNAH       CLEAR     36  36 100 CALM      30.19S
$$

TNZ008-025-027-028-033-062-065-066-230900-
NORTH MIDDLE TENNESSEE

CITY           SKY/WX    TMP DP  RH WIND       PRES   REMARKS
NASHVILLE      CLEAR     43  40  89 NE6       30.21F
CLARKSVILLE    CLEAR     42  40  92 CALM      30.22F
COOKEVILLE       N/A     34  32  93 CALM      30.19F VSB 1/4
CROSSVILLE     CLEAR     39  35  86 VRB3      30.18S
$$

TNZ061-075-076-078-094-096-097-230900-
SOUTH MIDDLE TENNESSEE

CITY           SKY/WX    TMP DP  RH WIND       PRES   REMARKS
SHELBYVILLE    CLEAR     41  39  93 NE3       30.20F
$$

TNZ017-018-042-046-047-230900-
NORTHEAST TENNESSEE

CITY           SKY/WX    TMP DP  RH WIND       PRES   REMARKS
TRI CITIES     CLOUDY    48  40  73 N3        30.18F
ELIZABETHTON   CLOUDY    45  39  81 W5        30.17F
$$

TNZ012-013-036-069-073-074-230900-
CENTRAL EAST TENNESSEE

CITY           SKY/WX    TMP DP  RH WIND       PRES   REMARKS
KNOXVILLE      CLEAR     42  38  85 NE8       30.17F
OAK RIDGE      CLOUDY    48  42  80 CALM      30.20F
GATLINBURG     PTSUNNY   39  39 100 CALM      30.18F
$$

TNZ083-085-099-230900-
SOUTHEAST TENNESSEE

CITY           SKY/WX    TMP DP  RH WIND       PRES   REMARKS
CHATTANOOGA    CLEAR     48  40  73 N9        30.17S
$$

SKY/WX REPORTED AS FAIR MEANS FEW OR NO CLOUDS BELOW
12 THOUSAND FEET.




USA.gov is the U.S. government's official web portal to all federal, state and local government web resources and services.